Location: Dumpton Point
(51.3500°N, 1.4433°E)
Time: 14:05:18
(UTC+00:00)

Envisat - Pass Details

Date: 07 December 2021
Orbit: 764 x 766 km, 98.2° (Epoch: 28 January)

Event Time Altitude Azimuth Distance (km) Brightness Sun altitude
Rises 03:39:17 0° 26° (NNE) 3,247 6.7 -37.0°
Reaches altitude 10° 03:42:23 10° 46° (NE) 2,314 6.0 -36.6°
Maximum altitude 03:45:46 18° 88° (E) 1,836 5.6 -36.0°
Drops below altitude 10° 03:49:07 10° 130° (SE) 2,302 5.9 -35.5°
Sets 03:52:11 0° 149° (SSE) 3,222 6.5 -35.1°
